Time,TemperatureF,DewpointF,PressureIn,WindDirection,WindDirectionDegrees,WindSpeedMPH,WindSpeedGustMPH,Humidity,HourlyPrecipIn,Conditions,Clouds,dailyrainin,SoftwareType,DateUTC
2013-02-17 00:06:00,12.6,6.0,30.13,NE,42,5.0,6.0,75,0.00,,,0.00,weatherlink.com 1.10,2013-02-17 05:06:00,
2013-02-17 00:21:00,13.0,6.0,30.12,ENE,63,11.0,11.0,74,0.00,,,0.00,weatherlink.com 1.10,2013-02-17 05:21:00,
2013-02-17 00:36:00,12.9,5.0,30.12,NE,55,4.0,7.0,72,0.00,,,0.00,weatherlink.com 1.10,2013-02-17 05:36:00,
2013-02-17 00:51:00,12.5,6.0,30.12,NE,51,3.0,8.0,74,0.00,,,0.00,weatherlink.com 1.10,2013-02-17 05:51:00,
2013-02-17 01:06:00,12.6,6.0,30.12,ENE,68,4.0,8.0,74,0.00,,,0.00,weatherlink.com 1.10,2013-02-17 06:06:00,
2013-02-17 01:21:00,13.1,6.0,30.12,NE,47,4.0,10.0,73,0.00,,,0.00,weatherlink.com 1.10,2013-02-17 06:21:00,
2013-02-17 01:36:00,13.5,6.0,30.12,NE,44,4.0,9.0,73,0.00,,,0.00,weatherlink.com 1.10,2013-02-17 06:36:00,
2013-02-17 01:51:00,13.7,6.0,30.12,NE,46,6.0,9.0,72,0.00,,,0.00,weatherlink.com 1.10,2013-02-17 06:51:00,
2013-02-17 02:06:00,14.0,7.0,30.12,ENE,57,5.0,10.0,72,0.00,,,0.00,weatherlink.com 1.10,2013-02-17 07:06:00,
2013-02-17 02:21:00,14.1,7.0,30.12,ENE,60,4.0,8.0,72,0.00,,,0.00,weatherlink.com 1.10,2013-02-17 07:21:00,
2013-02-17 02:36:00,11.4,5.0,30.12,SE,124,4.0,7.0,74,0.00,,,0.00,weatherlink.com 1.10,2013-02-17 07:36:00,
2013-02-17 02:51:00,9.7,4.0,30.12,SE,124,4.0,5.0,77,0.00,,,0.00,weatherlink.com 1.10,2013-02-17 07:51:00,
2013-02-17 03:06:00,8.2,3.0,30.12,SE,124,5.0,5.0,80,0.00,,,0.00,weatherlink.com 1.10,2013-02-17 08:06:00,
2013-02-17 03:21:00,8.5,4.0,30.12,ESE,123,4.0,9.0,82,0.00,,,0.00,weatherlink.com 1.10,2013-02-17 08:21:00,
2013-02-17 03:36:00,9.1,5.0,30.12,ESE,123,0.0,5.0,82,0.00,,,0.00,weatherlink.com 1.10,2013-02-17 08:36:00,
2013-02-17 03:51:00,9.9,6.0,30.12,SE,124,1.0,5.0,82,0.00,,,0.00,weatherlink.com 1.10,2013-02-17 08:51:00,
2013-02-17 04:06:00,8.9,5.0,30.12,SE,124,3.0,4.0,83,0.00,,,0.00,weatherlink.com 1.10,2013-02-17 09:06:00,
2013-02-17 04:21:00,9.6,5.0,30.12,SE,124,4.0,7.0,82,0.00,,,0.00,weatherlink.com 1.10,2013-02-17 09:21:00,
2013-02-17 04:36:00,10.0,6.0,30.12,SE,124,1.0,3.0,84,0.00,,,0.00,weatherlink.com 1.10,2013-02-17 09:36:00,
2013-02-17 04:52:00,10.0,6.0,30.12,SE,124,4.0,4.0,83,0.00,,,0.00,weatherlink.com 1.10,2013-02-17 09:52:00,
2013-02-17 05:07:00,9.2,5.0,30.13,SE,124,4.0,7.0,83,0.00,,,0.00,weatherlink.com 1.10,2013-02-17 10:07:00,
2013-02-17 05:22:00,9.8,6.0,30.13,SE,124,3.0,4.0,83,0.00,,,0.00,weatherlink.com 1.10,2013-02-17 10:22:00,
2013-02-17 05:37:00,8.7,4.0,30.12,SE,124,3.0,7.0,82,0.00,,,0.00,weatherlink.com 1.10,2013-02-17 10:37:00,
2013-02-17 05:52:00,8.8,5.0,30.12,SE,125,1.0,7.0,84,0.00,,,0.00,weatherlink.com 1.10,2013-02-17 10:52:00,
2013-02-17 06:07:00,9.4,6.0,30.13,SE,125,1.0,3.0,84,0.00,,,0.00,weatherlink.com 1.10,2013-02-17 11:07:00,
2013-02-17 06:22:00,9.4,6.0,30.12,SE,131,7.0,8.0,84,0.00,,,0.00,weatherlink.com 1.10,2013-02-17 11:22:00,
2013-02-17 06:37:00,10.1,7.0,30.13,SSE,163,3.0,7.0,85,0.00,,,0.00,weatherlink.com 1.10,2013-02-17 11:37:00,
2013-02-17 06:52:00,10.2,6.0,30.13,SSE,150,5.0,9.0,84,0.00,,,0.00,weatherlink.com 1.10,2013-02-17 11:52:00,
2013-02-17 07:07:00,10.3,6.0,30.14,SE,140,6.0,8.0,84,0.00,,,0.00,weatherlink.com 1.10,2013-02-17 12:07:00,
2013-02-17 07:22:00,9.9,6.0,30.14,SE,143,3.0,8.0,83,0.00,,,0.00,weatherlink.com 1.10,2013-02-17 12:22:00,
2013-02-17 07:37:00,9.1,5.0,30.14,SE,143,1.0,4.0,84,0.00,,,0.00,weatherlink.com 1.10,2013-02-17 12:37:00,
2013-02-17 07:52:00,9.2,6.0,30.14,SSE,159,3.0,6.0,85,0.00,,,0.00,weatherlink.com 1.10,2013-02-17 12:52:00,
2013-02-17 08:08:00,8.5,5.0,30.15,SSE,157,5.0,5.0,85,0.00,,,0.00,weatherlink.com 1.10,2013-02-17 13:08:00,
2013-02-17 08:23:00,8.2,4.0,30.15,SSE,159,2.0,5.0,84,0.00,,,0.00,weatherlink.com 1.10,2013-02-17 13:23:00,
2013-02-17 08:38:00,8.9,6.0,30.16,SSE,159,2.0,5.0,86,0.00,,,0.00,weatherlink.com 1.10,2013-02-17 13:38:00,
2013-02-17 09:08:00,8.6,5.0,30.16,SE,138,5.0,6.0,83,0.00,,,0.00,weatherlink.com 1.10,2013-02-17 14:08:00,
2013-02-17 09:23:00,9.7,6.0,30.16,SE,136,3.0,4.0,83,0.00,,,0.00,weatherlink.com 1.10,2013-02-17 14:23:00,
2013-02-17 09:38:00,11.2,7.0,30.16,SE,135,3.0,6.0,82,0.00,,,0.00,weatherlink.com 1.10,2013-02-17 14:38:00,
2013-02-17 09:53:00,11.6,7.0,30.17,SE,136,5.0,6.0,82,0.00,,,0.00,weatherlink.com 1.10,2013-02-17 14:53:00,
2013-02-17 10:08:00,12.2,7.0,30.17,SE,134,5.0,6.0,81,0.00,,,0.00,weatherlink.com 1.10,2013-02-17 15:08:00,
2013-02-17 10:23:00,13.1,8.0,30.17,SE,144,3.0,6.0,81,0.00,,,0.00,weatherlink.com 1.10,2013-02-17 15:23:00,
2013-02-17 10:38:00,14.1,9.0,30.17,SE,145,3.0,7.0,79,0.00,,,0.00,weatherlink.com 1.10,2013-02-17 15:38:00,
2013-02-17 10:53:00,15.1,10.0,30.17,SSE,151,5.0,6.0,79,0.00,,,0.00,weatherlink.com 1.10,2013-02-17 15:53:00,
2013-02-17 11:08:00,15.4,10.0,30.17,SSE,159,4.0,7.0,79,0.00,,,0.00,weatherlink.com 1.10,2013-02-17 16:08:00,
2013-02-17 11:23:00,16.0,11.0,30.17,SSE,152,3.0,7.0,79,0.00,,,0.00,weatherlink.com 1.10,2013-02-17 16:23:00,
2013-02-17 11:39:00,15.9,10.0,30.18,SSE,147,1.0,5.0,77,0.00,,,0.00,weatherlink.com 1.10,2013-02-17 16:39:00,
2013-02-17 11:54:00,16.2,10.0,30.18,SE,144,3.0,5.0,77,0.00,,,0.00,weatherlink.com 1.10,2013-02-17 16:54:00,
2013-02-17 12:09:00,17.2,11.0,30.17,South,170,3.0,4.0,77,0.00,,,0.00,weatherlink.com 1.10,2013-02-17 17:09:00,
2013-02-17 12:24:00,16.9,11.0,30.17,SSE,148,2.0,5.0,77,0.00,,,0.00,weatherlink.com 1.10,2013-02-17 17:24:00,
2013-02-17 12:39:00,17.0,11.0,30.16,SE,142,3.0,6.0,76,0.00,,,0.00,weatherlink.com 1.10,2013-02-17 17:39:00,
2013-02-17 12:54:00,17.4,11.0,30.16,SE,144,3.0,7.0,75,0.00,,,0.00,weatherlink.com 1.10,2013-02-17 17:54:00,
2013-02-17 13:09:00,17.6,11.0,30.15,SE,142,3.0,6.0,75,0.00,,,0.00,weatherlink.com 1.10,2013-02-17 18:09:00,
2013-02-17 13:24:00,18.1,12.0,30.15,South,175,3.0,7.0,76,0.00,,,0.00,weatherlink.com 1.10,2013-02-17 18:24:00,
2013-02-17 13:39:00,18.4,12.0,30.14,SSE,147,4.0,6.0,76,0.00,,,0.00,weatherlink.com 1.10,2013-02-17 18:39:00,
2013-02-17 13:54:00,18.1,11.0,30.14,SSE,163,2.0,6.0,74,0.00,,,0.00,weatherlink.com 1.10,2013-02-17 18:54:00,
2013-02-17 14:09:00,19.1,12.0,30.14,SW,215,6.0,7.0,74,0.00,,,0.00,weatherlink.com 1.10,2013-02-17 19:09:00,
2013-02-17 14:24:00,18.4,11.0,30.14,SSW,205,4.0,8.0,74,0.00,,,0.00,weatherlink.com 1.10,2013-02-17 19:24:00,
2013-02-17 14:39:00,19.0,12.0,30.14,SSW,204,8.0,9.0,74,0.00,,,0.00,weatherlink.com 1.10,2013-02-17 19:39:00,
2013-02-17 14:54:00,19.1,12.0,30.14,SSW,210,6.0,9.0,74,0.00,,,0.00,weatherlink.com 1.10,2013-02-17 19:54:00,
2013-02-17 15:10:00,19.7,13.0,30.14,SW,226,6.0,8.0,74,0.00,,,0.00,weatherlink.com 1.10,2013-02-17 20:10:00,
2013-02-17 15:25:00,19.4,12.0,30.14,WSW,238,4.0,10.0,74,0.00,,,0.00,weatherlink.com 1.10,2013-02-17 20:25:00,
2013-02-17 15:40:00,19.3,14.0,30.14,SSW,213,4.0,8.0,78,0.00,,,0.00,weatherlink.com 1.10,2013-02-17 20:40:00,
2013-02-17 15:55:00,19.3,14.0,30.13,SW,225,7.0,8.0,79,0.00,,,0.00,weatherlink.com 1.10,2013-02-17 20:55:00,
2013-02-17 16:10:00,19.5,14.0,30.13,West,265,4.0,7.0,78,0.00,,,0.00,weatherlink.com 1.10,2013-02-17 21:10:00,
2013-02-17 16:25:00,19.9,12.0,30.13,West,262,7.0,15.0,71,0.00,,,0.00,weatherlink.com 1.10,2013-02-17 21:25:00,
2013-02-17 16:40:00,19.8,11.0,30.13,West,263,9.0,11.0,69,0.00,,,0.00,weatherlink.com 1.10,2013-02-17 21:40:00,
2013-02-17 16:55:00,20.0,11.0,30.12,WSW,256,7.0,13.0,69,0.00,,,0.00,weatherlink.com 1.10,2013-02-17 21:55:00,
2013-02-17 17:10:00,20.1,11.0,30.12,West,281,8.0,11.0,69,0.00,,,0.00,weatherlink.com 1.10,2013-02-17 22:10:00,
2013-02-17 17:25:00,20.1,11.0,30.12,West,261,6.0,12.0,68,0.00,,,0.00,weatherlink.com 1.10,2013-02-17 22:25:00,
2013-02-17 17:40:00,20.1,11.0,30.12,SW,236,6.0,9.0,68,0.00,,,0.00,weatherlink.com 1.10,2013-02-17 22:40:00,
2013-02-17 17:55:00,20.0,11.0,30.12,West,259,4.0,9.0,69,0.00,,,0.00,weatherlink.com 1.10,2013-02-17 22:55:00,
2013-02-17 18:10:00,19.9,11.0,30.12,WSW,239,5.0,7.0,69,0.00,,,0.00,weatherlink.com 1.10,2013-02-17 23:10:00,
2013-02-17 18:26:00,19.8,11.0,30.12,WSW,240,3.0,6.0,69,0.00,,,0.00,weatherlink.com 1.10,2013-02-17 23:26:00,
2013-02-17 18:41:00,19.5,11.0,30.11,SSW,198,6.0,7.0,70,0.00,,,0.00,weatherlink.com 1.10,2013-02-17 23:41:00,
2013-02-17 18:56:00,19.5,12.0,30.11,South,182,4.0,7.0,72,0.00,,,0.00,weatherlink.com 1.10,2013-02-17 23:56:00,
2013-02-17 19:11:00,19.4,12.0,30.11,South,175,3.0,8.0,72,0.00,,,0.00,weatherlink.com 1.10,2013-02-18 00:11:00,
2013-02-17 19:26:00,19.2,12.0,30.11,South,188,5.0,8.0,72,0.00,,,0.00,weatherlink.com 1.10,2013-02-18 00:26:00,
2013-02-17 19:41:00,19.0,11.0,30.11,South,182,6.0,8.0,72,0.00,,,0.00,weatherlink.com 1.10,2013-02-18 00:41:00,
2013-02-17 19:56:00,18.9,12.0,30.11,South,172,5.0,7.0,74,0.00,,,0.00,weatherlink.com 1.10,2013-02-18 00:56:00,
2013-02-17 20:11:00,18.9,13.0,30.11,SSE,159,5.0,7.0,76,0.00,,,0.00,weatherlink.com 1.10,2013-02-18 01:11:00,
2013-02-17 20:26:00,18.9,13.0,30.11,South,170,8.0,8.0,76,0.00,,,0.00,weatherlink.com 1.10,2013-02-18 01:26:00,
2013-02-17 20:41:00,18.8,12.0,30.11,South,177,7.0,10.0,76,0.00,,,0.00,weatherlink.com 1.10,2013-02-18 01:41:00,
2013-02-17 20:56:00,18.6,12.0,30.11,South,182,7.0,10.0,76,0.00,,,0.00,weatherlink.com 1.10,2013-02-18 01:56:00,
2013-02-17 21:11:00,18.5,12.0,30.10,South,180,7.0,12.0,75,0.00,,,0.00,weatherlink.com 1.10,2013-02-18 02:11:00,
2013-02-17 21:26:00,18.1,12.0,30.10,South,178,7.0,11.0,76,0.00,,,0.00,weatherlink.com 1.10,2013-02-18 02:26:00,
2013-02-17 21:41:00,17.9,12.0,30.10,SSE,160,7.0,11.0,76,0.00,,,0.00,weatherlink.com 1.10,2013-02-18 02:41:00,
2013-02-17 21:57:00,18.1,12.0,30.10,South,180,6.0,12.0,76,0.00,,,0.00,weatherlink.com 1.10,2013-02-18 02:57:00,
2013-02-17 22:12:00,18.2,12.0,30.10,South,172,8.0,13.0,75,0.00,,,0.00,weatherlink.com 1.10,2013-02-18 03:12:00,
2013-02-17 22:27:00,17.7,11.0,30.10,South,183,9.0,14.0,75,0.00,,,0.00,weatherlink.com 1.10,2013-02-18 03:27:00,
2013-02-17 22:42:00,18.0,11.0,30.09,South,186,10.0,14.0,74,0.00,,,0.00,weatherlink.com 1.10,2013-02-18 03:42:00,
2013-02-17 22:57:00,18.2,11.0,30.09,South,190,10.0,16.0,73,0.00,,,0.00,weatherlink.com 1.10,2013-02-18 03:57:00,
2013-02-17 23:12:00,17.8,11.0,30.08,South,178,12.0,14.0,74,0.00,,,0.00,weatherlink.com 1.10,2013-02-18 04:12:00,
2013-02-17 23:27:00,18.0,11.0,30.08,South,181,13.0,15.0,74,0.00,,,0.00,weatherlink.com 1.10,2013-02-18 04:27:00,
2013-02-17 23:42:00,18.4,11.0,30.08,South,173,9.0,17.0,73,0.00,,,0.00,weatherlink.com 1.10,2013-02-18 04:42:00,
2013-02-17 23:57:00,18.2,11.0,30.08,SSW,194,11.0,16.0,73,0.00,,,0.00,weatherlink.com 1.10,2013-02-18 04:57:00,